Location: Recife
(8.0585°S, 34.8848°W)
Time: 10:56:01
(UTC-03:00)

Transit 2A Rocket - Pass Details

Date: 23 April 2026
Orbit: 587 x 895 km, 66.7° (Epoch: 14 May)

Event Time Altitude Azimuth Distance (km) Brightness Sun altitude
Rises 22:22:11 0° 218° (SW) 3,461 - -75.5°
Reaches altitude 10° 22:24:54 10° 228° (SW) 2,544 - -76.2°
Maximum altitude 22:30:04 31° 288° (WNW) 1,511 - -77.3°
Drops below altitude 10° 22:35:15 10° 349° (N) 2,545 - -78.5°
Sets 22:38:00 0° 359° (N) 3,462 - -79.1°
